GW0774 Weather Reports


time (UTC)temp
C
wind
direction
speed
KPH
gust
KPH
rain 1hr
cm
rain 24hr
cm
rain mn
cm
humidity
%
barometer
mb
20230208163541 11 0 0.0 1.6 0.00 0.00 0.00 90 1005.1
20230208163049 11 0 0.0 3.2 0.00 0.00 0.00 90 1005.1
20230208162544 11 0 0.0 3.2 0.00 0.00 0.00 90 1005.1
20230208162042 11 63 0.0 1.6 0.00 0.00 0.00 90 1005.0
20230208161549 11 136 0.0 1.6 0.00 0.00 0.00 89 1005.0
20230208161039 11 0 0.0 1.6 0.00 0.00 0.00 89 1004.9
20230208160540 11 0 0.0 1.6 0.00 0.00 0.00 88 1004.9
20230208160043 11 0 0.0 1.6 0.00 0.00 0.00 88 1004.9
20230208155539 11 0 0.0 1.6 0.00 0.00 0.00 87 1005.0
20230208155039 12 0 0.0 1.6 0.00 0.00 0.00 86 1005.0
20230208154605 12 0 0.0 1.6 0.00 0.00 0.00 85 1005.1
20230208154039 12 133 0.0 4.8 0.00 0.00 0.00 84 1005.2
20230208153540 13 92 0.0 4.8 0.00 0.00 0.00 84 1005.2
20230208153059 13 90 0.0 4.8 0.00 0.00 0.00 85 1005.2
20230208152539 13 90 1.6 3.2 0.00 0.00 0.00 84 1005.1
20230208152039 13 92 0.0 3.2 0.00 0.00 0.00 84 1005.1
20230208151548 13 92 0.0 3.2 0.00 0.00 0.00 84 1005.1
20230208151040 13 92 0.0 3.2 0.00 0.00 0.00 84 1005.1
20230208150539 13 86 0.0 4.8 0.00 0.00 0.00 84 1005.1
20230208150043 13 0 0.0 6.4 0.00 0.00 0.00 84 1005.1
20230208145541 13 0 1.6 6.4 0.00 0.00 0.00 85 1005.1
20230208145041 13 50 1.6 6.4 0.00 0.00 0.00 85 1005.0
20230208144549 13 82 1.6 4.8 0.00 0.00 0.00 86 1005.1
20230208144040 13 0 0.0 3.2 0.00 0.00 0.00 86 1005.0
20230208143540 13 130 0.0 1.6 0.00 0.00 0.00 85 1004.9
20230208143051 13 0 0.0 11.3 0.00 0.00 0.00 85 1005.0
20230208142539 13 130 0.0 11.3 0.00 0.00 0.00 86 1005.0
20230208142040 13 49 1.6 11.3 0.00 0.00 0.00 86 1005.0
20230208141557 13 0 0.0 3.2 0.00 0.00 0.00 86 1004.9
20230208141040 13 0 0.0 4.8 0.00 0.00 0.00 87 1004.9
20230208140540 13 157 0.0 4.8 0.00 0.00 0.00 87 1004.8
20230208140042 13 0 1.6 4.8 0.00 0.00 0.00 88 1004.9
20230208135539 13 0 0.0 4.8 0.00 0.00 0.00 88 1004.9
20230208135040 13 0 0.0 3.2 0.00 0.00 0.00 88 1004.9
20230208134548 13 189 0.0 3.2 0.00 0.00 0.00 88 1004.8
20230208134041 13 200 0.0 3.2 0.00 0.00 0.00 88 1004.8
20230208133539 13 0 0.0 4.8 0.00 0.00 0.00 88 1004.8
20230208133049 13 0 0.0 4.8 0.00 0.00 0.00 88 1004.9
20230208132540 13 334 0.0 3.2 0.00 0.00 0.00 88 1004.8
20230208132040 13 0 0.0 3.2 0.00 0.00 0.00 88 1004.8
20230208131547 13 17 0.0 3.2 0.00 0.00 0.00 88 1004.8
20230208131040 13 167 0.0 6.4 0.00 0.00 0.00 88 1004.8
20230208130539 13 225 0.0 6.4 0.00 0.00 0.00 88 1004.8
20230208130051 13 0 0.0 4.8 0.00 0.00 0.00 87 1004.8
20230208125540 13 0 0.0 4.8 0.00 0.00 0.00 87 1004.8
20230208125040 13 184 0.0 8.0 0.00 0.00 0.00 87 1004.8
20230208124546 13 250 0.0 8.0 0.00 0.00 0.00 87 1004.8
20230208124040 14 0 0.0 6.4 0.00 0.00 0.00 86 1004.8
20230208123540 14 0 0.0 6.4 0.00 0.00 0.00 86 1004.9
20230208123044 14 27 0.0 6.4 0.00 0.00 0.00 86 1004.8
20230208122540 14 171 0.0 6.4 0.00 0.00 0.00 85 1004.8
20230208122039 14 67 0.0 4.8 0.00 0.00 0.00 85 1004.8
20230208121547 14 55 1.6 4.8 0.00 0.00 0.00 85 1004.8
20230208121041 14 0 0.0 6.4 0.00 0.00 0.00 85 1004.8
20230208120540 15 280 0.0 6.4 0.00 0.00 0.00 85 1004.8
20230208120046 15 80 1.6 4.8 0.00 0.00 0.00 84 1004.7
20230208115540 15 236 1.6 3.2 0.00 0.00 0.00 84 1004.7
20230208115040 15 76 0.0 12.9 0.00 0.00 0.00 84 1004.6
20230208114558 15 180 0.0 12.9 0.00 0.00 0.00 84 1004.6
20230208114043 15 0 1.6 11.3 0.00 0.00 0.00 84 1004.6
20230208113540 15 74 1.6 8.0 0.00 0.00 0.00 85 1004.6
20230208113056 15 94 1.6 4.8 0.00 0.00 0.00 85 1004.5
20230208112539 15 209 0.0 4.8 0.00 0.00 0.00 84 1004.6
20230208112040 15 157 1.6 9.7 0.00 0.00 0.00 85 1004.5
20230208111543 15 95 0.0 9.7 0.00 0.00 0.00 84 1004.5
20230208111039 15 54 1.6 8.0 0.00 0.00 0.00 85 1004.6
20230208110540 15 146 0.0 8.0 0.00 0.00 0.00 85 1004.5
20230208110043 14 89 1.6 8.0 0.00 0.00 0.00 85 1004.6
20230208105546 14 0 1.6 8.0 0.00 0.00 0.00 85 1004.6
20230208105039 14 0 0.0 8.0 0.00 0.00 0.00 85 1004.7
20230208104548 14 258 0.0 8.0 0.00 0.00 0.00 86 1004.7
20230208104039 14 314 0.0 3.2 0.00 0.00 0.00 85 1004.7
20230208103542 14 0 0.0 4.8 0.00 0.00 0.00 85 1004.8
20230208103042 14 0 1.6 4.8 0.00 0.00 0.00 85 1004.8
20230208102540 15 9 0.0 3.2 0.00 0.00 0.00 85 1004.8
20230208102042 15 0 0.0 3.2 0.00 0.00 0.00 83 1004.8
20230208101545 15 0 0.0 3.2 0.00 0.00 0.00 83 1004.7
20230208101041 15 320 0.0 3.2 0.00 0.00 0.00 82 1004.7
20230208100542 15 314 0.0 3.2 0.00 0.00 0.00 82 1004.7
20230208100045 15 274 1.6 3.2 0.00 0.00 0.00 82 1004.8
20230208095540 15 274 0.0 4.8 0.00 0.00 0.00 81 1004.8
20230208095039 15 281 0.0 4.8 0.00 0.00 0.00 81 1004.8
20230208094550 15 292 0.0 4.8 0.00 0.00 0.00 81 1004.9
20230208094040 15 76 1.6 4.8 0.00 0.00 0.00 80 1004.8
20230208093549 15 67 0.0 8.0 0.00 0.00 0.00 80 1004.7
20230208093046 15 67 0.0 12.9 0.00 0.00 0.00 80 1004.9
20230208092539 16 161 0.0 12.9 0.00 0.00 0.00 80 1005.0
20230208092041 15 44 3.2 12.9 0.00 0.00 0.00 80 1005.1
20230208091542 16 150 0.0 6.4 0.00 0.00 0.00 80 1005.0
20230208091039 16 209 0.0 6.4 0.00 0.00 0.00 79 1004.9
20230208090540 16 87 0.0 4.8 0.00 0.00 0.00 78 1005.0
20230208090044 16 119 0.0 3.2 0.00 0.00 0.00 78 1004.9
20230208085540 16 235 0.0 3.2 0.00 0.00 0.00 77 1004.8
20230208085040 16 0 0.0 3.2 0.00 0.00 0.00 77 1004.7
20230208084544 16 177 0.0 3.2 0.00 0.00 0.00 77 1004.6
20230208084042 16 0 0.0 16.1 0.00 0.00 0.00 77 1004.6
20230208083540 16 0 1.6 16.1 0.00 0.00 0.00 77 1004.5
20230208083101 16 39 1.6 17.7 0.00 0.00 0.00 77 1004.5
20230208082539 16 32 3.2 17.7 0.00 0.00 0.00 77 1004.5
20230208082043 16 342 3.2 11.3 0.00 0.00 0.00 77 1004.5
20230208081549 16 140 0.0 3.2 0.00 0.00 0.00 76 1004.4
20230208081039 16 235 0.0 3.2 0.00 0.00 0.00 76 1004.3
20230208080540 16 296 1.6 6.4 0.00 0.00 0.00 76 1004.4
20230208080050 16 0 1.6 6.4 0.00 0.00 0.00 76 1004.2
20230208075539 16 0 0.0 4.8 0.00 0.00 0.00 75 1004.1
20230208075043 17 325 0.0 4.8 0.00 0.00 0.00 75 1004.1
20230208074549 17 238 1.6 8.0 0.00 0.00 0.00 74 1004.0
20230208074041 17 190 0.0 9.7 0.00 0.00 0.00 73 1004.0
20230208073539 17 261 1.6 9.7 0.00 0.00 0.00 73 1004.0
20230208073047 17 350 3.2 14.5 0.00 0.00 0.00 73 1003.9
20230208072545 17 232 3.2 14.5 0.00 0.00 0.00 74 1003.9
20230208072040 17 307 0.0 11.3 0.00 0.00 0.00 74 1003.9
20230208071550 17 259 1.6 12.9 0.00 0.00 0.00 74 1003.9
20230208071040 17 264 0.0 12.9 0.00 0.00 0.00 74 1003.9
20230208070543 17 235 0.0 12.9 0.00 0.00 0.00 73 1003.8
20230208070049 18 332 3.2 12.9 0.00 0.00 0.00 73 1003.8
20230208065539 18 189 3.2 11.3 0.00 0.00 0.00 73 1003.8
20230208065040 18 230 3.2 12.9 0.00 0.00 0.00 73 1003.9
20230208064552 18 251 4.8 12.9 0.00 0.00 0.00 72 1003.8
20230208064039 18 323 3.2 17.7 0.00 0.00 0.00 72 1003.7
20230208063539 18 269 4.8 17.7 0.00 0.00 0.00 73 1003.8
20230208063055 18 273 4.8 16.1 0.00 0.00 0.00 73 1003.7
20230208062541 18 255 3.2 16.1 0.00 0.00 0.00 73 1003.7
20230208062041 18 288 4.8 16.1 0.00 0.00 0.00 73 1003.7
20230208061557 19 303 4.8 16.1 0.00 0.00 0.00 72 1003.6
20230208061040 19 252 6.4 16.1 0.00 0.00 0.00 72 1003.5
20230208060540 19 245 4.8 17.7 0.00 0.00 0.00 71 1003.6
20230208060048 20 252 4.8 24.1 0.00 0.00 0.00 68 1003.5
20230208055541 20 291 8.0 24.1 0.00 0.00 0.00 68 1003.5
20230208055040 20 207 8.0 22.5 0.00 0.00 0.00 67 1003.4
20230208054547 20 260 6.4 20.9 0.00 0.00 0.00 68 1003.3
20230208054039 20 253 8.0 24.1 0.00 0.00 0.00 67 1003.3
20230208053540 20 15 9.7 24.1 0.00 0.00 0.00 66 1003.3
20230208053105 20 293 8.0 25.7 0.00 0.00 0.00 66 1003.3
20230208052541 20 306 9.7 25.7 0.00 0.00 0.00 65 1003.2
20230208052041 20 268 9.7 27.4 0.00 0.00 0.00 68 1003.1
20230208051606 20 302 14.5 27.4 0.00 0.00 0.00 67 1003.2
20230208051040 20 253 12.9 27.4 0.00 0.00 0.00 66 1003.3
20230208050540 21 246 9.7 24.1 0.00 0.00 0.00 65 1003.3
20230208050059 20 273 12.9 29.0 0.00 0.00 0.00 66 1003.3
20230208045540 21 279 12.9 29.0 0.00 0.00 0.00 64 1003.2
20230208045040 21 250 8.0 22.5 0.00 0.00 0.00 66 1003.4
20230208044558 21 184 11.3 24.1 0.00 0.00 0.00 66 1003.5
20230208044041 21 274 12.9 24.1 0.00 0.00 0.00 67 1003.4
20230208043540 21 275 16.1 27.4 0.00 0.00 0.00 63 1003.4
20230208043102 21 257 8.0 27.4 0.00 0.00 0.00 67 1003.4
20230208042542 21 288 9.7 27.4 0.00 0.00 0.00 64 1003.2
20230208042045 21 315 12.9 27.4 0.00 0.00 0.00 66 1003.3
20230208041546 21 337 9.7 25.7 0.00 0.00 0.00 66 1003.4
20230208041042 21 178 9.7 25.7 0.00 0.00 0.00 70 1003.4
20230208040542 21 219 11.3 25.7 0.00 0.00 0.00 69 1003.3
20230208040058 21 232 11.3 25.7 0.00 0.00 0.00 69 1003.5
20230208035540 21 311 8.0 25.7 0.00 0.00 0.00 72 1003.4
20230208035040 21 36 8.0 25.7 0.00 0.00 0.00 70 1003.5
20230208034622 21 52 9.7 25.7 0.00 0.00 0.00 70 1003.5
20230208034039 21 280 6.4 22.5 0.00 0.00 0.00 72 1003.6
20230208033544 21 306 8.0 22.5 0.00 0.00 0.00 72 1003.7
20230208033048 21 320 9.7 22.5 0.00 0.00 0.00 72 1003.6
20230208032540 21 304 9.7 24.1 0.00 0.00 0.00 71 1003.6
20230208032043 21 271 9.7 27.4 0.00 0.00 0.00 72 1003.6
20230208031549 21 290 11.3 27.4 0.00 0.00 0.00 70 1003.6
20230208031040 21 229 14.5 27.4 0.00 0.00 0.00 68 1003.6
20230208030540 21 304 12.9 30.6 0.00 0.00 0.00 67 1003.7
20230208030112 21 260 14.5 37.0 0.00 0.00 0.00 68 1003.7
20230208025539 21 313 16.1 37.0 0.00 0.00 0.00 66 1003.7
20230208025040 21 263 8.0 29.0 0.00 0.00 0.00 69 1003.6
20230208024545 21 265 14.5 29.0 0.00 0.00 0.00 68 1003.6
20230208024040 21 305 16.1 27.4 0.00 0.00 0.00 65 1003.7
20230208023540 22 259 11.3 27.4 0.00 0.00 0.00 66 1003.7
20230208023043 22 274 8.0 25.7 0.00 0.00 0.00 68 1003.7
20230208022539 22 284 12.9 25.7 0.00 0.00 0.00 66 1003.8
20230208022036 22 320 11.3 25.7 0.00 0.00 0.00 68 1003.8
20230208021552 21 270 11.3 25.7 0.00 0.00 0.00 70 1003.8
20230208021040 21 49 12.9 25.7 0.00 0.00 0.00 68 1003.8
20230208020539 21 281 11.3 27.4 0.00 0.00 0.00 67 1003.8
20230208020044 21 329 14.5 27.4 0.00 0.00 0.00 67 1003.7
20230208015540 22 245 12.9 25.7 0.00 0.00 0.00 67 1003.8
20230208015039 22 181 8.0 33.8 0.00 0.00 0.00 70 1003.8
20230208014547 21 305 16.1 33.8 0.00 0.00 0.00 67 1003.8
20230208014040 22 265 14.5 33.8 0.00 0.00 0.00 62 1003.8
20230208013539 22 277 11.3 25.7 0.00 0.00 0.00 66 1003.8
20230208013045 22 234 12.9 25.7 0.00 0.00 0.00 65 1003.9
20230208012543 22 261 14.5 25.7 0.00 0.00 0.00 65 1003.7
20230208012042 22 293 6.4 30.6 0.00 0.00 0.00 68 1003.7
20230208011546 22 209 11.3 30.6 0.00 0.00 0.00 68 1003.6
20230208011040 21 292 14.5 30.6 0.00 0.00 0.00 69 1003.6
20230208010540 22 264 12.9 27.4 0.00 0.00 0.00 70 1003.6
20230208010102 22 239 11.3 27.4 0.00 0.00 0.00 69 1003.7
20230208005541 22 225 8.0 27.4 0.00 0.00 0.00 68 1003.5
20230208005039 22 291 11.3 27.4 0.00 0.00 0.00 65 1003.6
20230208004544 23 73 6.4 25.7 0.00 0.00 0.00 67 1003.5
20230208004109 22 250 4.8 22.5 0.00 0.00 0.00 71 1003.6
20230208003539 22 253 9.7 22.5 0.00 0.00 0.00 69 1003.5
20230208003050 22 249 8.0 24.1 0.00 0.00 0.00 67 1003.4
20230208002540 22 216 9.7 24.1 0.00 0.00 0.00 65 1003.4
20230208002039 23 34 6.4 19.3 0.00 0.00 0.00 67 1003.4
20230208001553 22 277 8.0 25.7 0.00 0.00 0.00 68 1003.4
20230208001040 22 230 12.9 25.7 0.00 0.00 0.00 68 1003.5
20230208000541 22 307 9.7 22.5 0.00 0.00 0.00 65 1003.5
20230208000048 22 325 8.0 20.9 0.00 0.00 0.00 67 1003.4
20230207235540 22 245 6.4 17.7 0.00 0.00 0.00 69 1003.6
20230207235040 22 257 6.4 20.9 0.00 0.00 0.00 70 1003.6
20230207234552 22 257 8.0 22.5 0.00 0.00 0.00 70 1003.6
20230207234040 21 288 11.3 24.1 0.00 0.00 0.00 68 1003.6
20230207233540 21 240 6.4 24.1 0.00 0.00 0.00 66 1003.7
20230207233053 21 290 12.9 22.5 0.00 0.00 0.00 68 1003.6
20230207232540 22 265 8.0 17.7 0.00 0.00 0.00 73 1003.6
20230207232042 21 254 4.8 19.3 0.00 0.00 0.00 77 1003.6
20230207231552 21 251 4.8 20.9 0.00 0.00 0.00 80 1003.7
20230207231039 20 281 8.0 20.9 0.00 0.00 0.00 78 1003.7
20230207230539 21 277 11.3 17.7 0.00 0.00 0.00 78 1003.6
20230207230052 21 329 8.0 20.9 0.00 0.00 0.00 78 1003.7
20230207225540 21 265 8.0 20.9 0.00 0.00 0.00 76 1003.6
20230207225041 21 299 8.0 20.9 0.00 0.00 0.00 77 1003.7
20230207224552 21 271 6.4 16.1 0.00 0.00 0.00 77 1003.7
20230207224044 21 253 6.4 16.1 0.00 0.00 0.00 77 1003.6
20230207223540 21 314 3.2 16.1 0.00 0.00 0.00 78 1003.8
20230207223052 21 253 4.8 24.1 0.00 0.00 0.00 77 1003.8
20230207222540 21 294 12.9 24.1 0.00 0.00 0.00 74 1003.7
20230207222040 21 311 11.3 27.4 0.00 0.00 0.00 74 1003.7
20230207221553 21 249 8.0 27.4 0.00 0.00 0.00 74 1003.8
20230207221039 21 282 9.7 25.7 0.00 0.00 0.00 75 1003.8
20230207220540 21 286 8.0 20.9 0.00 0.00 0.00 76 1003.8
20230207220101 21 267 9.7 20.9 0.00 0.00 0.00 75 1003.7
20230207215544 21 19 8.0 20.9 0.00 0.00 0.00 76 1003.7
20230207215040 21 273 8.0 22.5 0.00 0.00 0.00 80 1003.8
20230207214549 21 265 11.3 22.5 0.00 0.00 0.00 79 1003.9
20230207214040 20 278 6.4 22.5 0.00 0.00 0.00 82 1003.8
20230207213540 20 294 6.4 20.9 0.00 0.00 0.00 82 1003.8
20230207213053 20 250 8.0 20.9 0.00 0.00 0.00 82 1003.7
20230207212540 20 242 9.7 20.9 0.00 0.00 0.00 81 1003.7
20230207212040 20 285 6.4 20.9 0.00 0.00 0.00 81 1003.7
20230207211559 20 268 8.0 20.9 0.00 0.00 0.00 84 1003.7
20230207211040 19 284 6.4 17.7 0.00 0.00 0.00 84 1003.8
20230207210542 19 254 6.4 16.1 0.00 0.00 0.00 83 1003.8
20230207210047 19 229 8.0 17.7 0.00 0.00 0.00 83 1003.7
20230207205544 19 240 6.4 17.7 0.00 0.00 0.00 82 1003.8
20230207205042 19 235 6.4 16.1 0.00 0.00 0.00 82 1003.8
20230207204548 19 267 4.8 16.1 0.00 0.00 0.00 83 1003.7
20230207204041 19 238 6.4 16.1 0.00 0.00 0.00 83 1003.8
20230207203539 19 244 6.4 17.7 0.00 0.00 0.00 82 1003.7
20230207203050 19 234 4.8 17.7 0.00 0.00 0.00 83 1003.7
20230207202544 19 263 4.8 16.1 0.00 0.00 0.00 83 1003.7
20230207202040 19 223 4.8 16.1 0.00 0.00 0.00 85 1003.7
20230207201600 19 286 4.8 16.1 0.00 0.00 0.00 87 1003.6
20230207201041 18 244 3.2 11.3 0.00 0.00 0.00 87 1003.7
20230207200540 18 88 1.6 8.0 0.00 0.00 0.00 88 1003.8
20230207200057 18 226 0.0 3.2 0.00 0.00 0.00 88 1003.8
20230207195541 18 162 0.0 6.4 0.00 0.00 0.00 87 1003.8
20230207195040 18 146 0.0 6.4 0.00 0.00 0.00 87 1003.7
20230207194552 18 9 1.6 6.4 0.00 0.00 0.00 86 1003.7
20230207194044 18 202 0.0 4.8 0.00 0.00 0.00 87 1003.6
20230207193539 18 343 1.6 6.4 0.00 0.00 0.00 88 1003.7
20230207193051 18 263 1.6 6.4 0.00 0.00 0.00 88 1003.7
20230207192540 17 292 1.6 9.7 0.00 0.00 0.00 88 1003.6
20230207192039 17 0 0.0 9.7 0.00 0.00 0.00 88 1003.6
20230207191544 17 69 1.6 14.5 0.00 0.00 0.00 89 1003.6
20230207191040 17 86 3.2 14.5 0.00 0.00 0.00 88 1003.7
20230207190540 17 276 1.6 8.0 0.00 0.00 0.00 89 1003.6
20230207190051 17 129 1.6 8.0 0.00 0.00 0.00 89 1003.6
20230207185539 17 261 1.6 8.0 0.00 0.00 0.00 89 1003.6
20230207185040 17 51 0.0 9.7 0.00 0.00 0.00 90 1003.6
20230207184553 17 77 1.6 9.7 0.00 0.00 0.00 90 1003.6
20230207184042 17 44 3.2 9.7 0.00 0.00 0.00 90 1003.7
20230207183539 17 53 3.2 6.4 0.00 0.00 0.00 90 1003.6
20230207183052 17 258 1.6 6.4 0.00 0.00 0.00 90 1003.6
20230207182541 16 64 1.6 3.2 0.00 0.00 0.00 91 1003.6
20230207182040 16 15 0.0 4.8 0.00 0.00 0.00 91 1003.7
20230207181555 16 14 0.0 4.8 0.00 0.00 0.00 91 1003.6
20230207181039 16 149 0.0 3.2 0.00 0.00 0.00 91 1003.7
20230207180540 16 61 0.0 1.6 0.00 0.00 0.00 91 1003.6
20230207180054 16 0 0.0 3.2 0.00 0.00 0.00 91 1003.6
20230207175540 16 0 0.0 3.2 0.00 0.00 0.00 91 1003.7
20230207175040 16 0 0.0 4.8 0.00 0.00 0.00 91 1003.5
20230207174554 16 0 0.0 4.8 0.00 0.00 0.00 91 1003.5
20230207174040 16 0 0.0 3.2 0.00 0.00 0.00 91 1003.6
20230207173543 16 111 0.0 3.2 0.00 0.00 0.00 90 1003.6
20230207173058 16 0 0.0 3.2 0.00 0.00 0.00 90 1003.5
20230207172540 16 121 0.0 1.6 0.00 0.00 0.00 90 1003.6
20230207172039 16 0 0.0 6.4 0.00 0.00 0.00 89 1003.5
20230207171548 16 0 0.0 6.4 0.00 0.00 0.00 89 1003.5
20230207171040 16 273 0.0 3.2 0.00 0.00 0.00 88 1003.5
20230207170540 16 0 0.0 6.4 0.00 0.00 0.00 88 1003.5
20230207170107 17 0 0.0 6.4 0.00 0.00 0.00 88 1003.5
20230207165540 17 55 1.6 4.8 0.00 0.00 0.00 87 1003.5
20230207165041 17 146 0.0 11.3 0.00 0.00 0.00 87 1003.4
20230207164549 17 288 1.6 11.3 0.00 0.00 0.00 87 1003.3
20230207164040 17 309 1.6 11.3 0.00 0.00 0.00 86 1003.2